Погода в Чистякове

Россия / Ростовская область     49°02′57″N   42°02′57″E
темп.,
°C
ветер,
м/с
пор.,
м/с
влажн.,
%
обл.,
%
осадки,
мм/ч
давл.,
гПа
погр.,
м
25 мая, ср
ср2500:00+9з46654 0.0 101285
03:00+9зюз496998 0.0 1013135
06:00+10з4968100 0.0 1014261
09:00+16з575555 0.0 1014895
12:00+18зсз6744100 0.3 10152456
15:00+16з475693 0.3 1016741
18:00+14з2366100 0.0 101687
21:00+12з3477100 0.0 101772
26 мая, чт
чт2600:00+11юв2278100 0.0 101842
03:00+10з47795 0.0 1018117
06:00+11з497940 0.0 1018234
09:00+17зсз34591 0.0 1018861
12:00+20з46417 0.0 10182366
15:00+19зюз6755100 0.0 10171088
18:00+18ююз5106198 0.0 1016457
21:00+15юз61470100 0.0 1015445
27 мая, пт
пт2700:00+13зюз71389100 0.5 1015658
03:00+13юз7139094 0.9 1014645
06:00+12зюз61190100 0.0 1014501
09:00+17зюз8126913 0.2 1013987
12:00+20зюз10135196 0.4 10122148
15:00+20з9145659 1.3 10122129
18:00+19зсз6115795 0.1 10131775
21:00+13з35700 0.1 101578
28 мая, сб
сб2800:00+12з33710 0.0 101634
03:00+11юз33720 0.0 101526
06:00+13ююз37750 0.0 1015171
09:00+20ююз68590 0.0 1014687
12:00+24юз784848 0.0 10142096
15:00+23зюз574976 0.0 10141695
18:00+21юз3666100 0.0 1015296
21:00+19ююз3566100 0.0 101682
29 мая, вс
вс2900:00+18ююз346829 0.0 101577
03:00+17ююв346518 0.0 101566
06:00+17ю2572100 0.0 1015147
09:00+22юз365721 0.0 1016563
12:00+23ю4557100 0.0 1016758
15:00+26ююз355056 0.0 10161368
18:00+19сз347886 0.5 101664
21:00+18с33809 0.5 101740